Location: Manébail
(47.9303°N, 3.3137°W)
Time: 08:02:46
(UTC+00:00)

Daily predictions for brighter satellites

Satellite Brightness Start Highest point End
(mag) Time Altitude Azimuth Time Altitude Azimuth Time Altitude Azimuth
Cosmos 1624 Rocket 4.2 20:50:33 10° S 20:55:38 53° ESE 21:00:42 10° NNE
Helios 1A Rocket 4.0 20:52:14 10° SE 20:55:50 32° ENE 20:59:30 10° N
CZ-4B R/B 0.9 20:53:17 10° NNE 20:56:11 76° ESE 20:59:03 10° S
Cosmos 1190 Rocket 4.1 20:51:30 10° NNW 20:56:51 87° ENE 21:02:10 10° SSE
Lacrosse 5 rocket 1.2 20:53:43 10° NW 20:57:33 84° SW 21:01:35 10° SE
Cosmos 407 Rocket 3.9 20:54:42 10° NNW 20:59:50 61° WSW 21:04:52 10° S
Cosmos 1271 Rocket 3.5 20:56:36 10° N 21:00:23 39° ENE 21:04:06 10° SE
NOSS 2-1 (E) 4.4 21:00:23 10° NNW 21:04:44 57° NE 21:10:51 10° SE
SPOT 3 Rocket 3.6 21:00:32 10° SSE 21:05:41 73° ENE 21:10:54 10° N
ERS-1 Rocket 3.5 21:04:05 10° SE 21:08:51 45° ENE 21:13:39 10° N
RESURS DK-1 4.2 21:05:40 10° N 21:08:56 22° NE 21:12:11 10° E
Lacrosse 4 Rocket 4.3 21:08:24 10° W 21:11:41 22° NW 21:14:56 10° N
Cosmos 1140 Rocket 4.4 21:07:04 10° NNW 21:12:02 45° WSW 21:16:55 10° S
Cosmos 2056 Rocket 3.6 21:10:57 10° SSW 21:16:19 79° ESE 21:21:46 10° NNE
Cosmos 1025 Rocket 3.0 21:12:38 10° S 21:16:54 89° E 21:21:14 10° N
Cosmos 1455 Rocket 3.5 21:14:52 10° NNW 21:19:11 62° W 21:23:26 10° S
Cosmos 2315 Rocket 4.1 21:13:07 10° S 21:19:28 88° E 21:25:48 10° N
ARIANE 5 R/B 3.6 21:18:10 10° SE 21:22:05 34° ENE 21:26:06 10° N
Cosmos 1420 Rocket 4.0 21:18:58 10° SSW 21:24:11 75° ESE 21:29:29 10° NNE
Cosmos 1709 Rocket 4.3 21:18:07 10° NNW 21:24:16 68° W 21:30:27 10° S
Cosmos 676 Rocket 4.1 21:19:00 10° NNW 21:24:21 90° WSW 21:29:29 11° SSE
SL-8 R/B 3.8 21:21:48 10° W 21:26:39 84° N 21:31:29 10° E
Cosmos 1455 2.1 21:27:53 10° N 21:31:42 87° ENE 21:35:18 11° S
USA 245 3.8 21:28:46 10° S 21:33:29 65° WSW 21:37:17 10° NNW
Cosmos 2074 Rocket 4.2 21:28:23 10° N 21:34:36 59° ENE 21:40:08 13° SSE
Meteor 2-5 Rocket 4.2 21:33:28 10° SSW 21:38:57 64° WNW 21:44:29 10° N
USA 32 4.1 21:33:52 10° S 21:39:05 85° W 21:44:21 10° N
Ariane Rocket 4.2 21:35:01 10° SSW 21:39:45 39° W 21:44:31 10° NNW
Cosmos 1607 4.1 21:35:29 10° SW 21:41:43 82° NW 21:47:57 10° NE
Cosmos 1954 Rocket 4.4 21:37:33 10° NNW 21:42:46 59° WSW 21:47:39 11° S
USA 267 3.5 21:40:01 10° ENE 21:46:13 44° SE 21:52:24 10° SSW
NOSS 2-1 (C) 4.1 21:41:48 10° NW 21:46:17 73° SW 21:51:27 15° SSE
Cosmos 1536 Rocket 3.6 21:43:14 11° S 21:47:18 64° E 21:51:37 10° NNE
Cosmos 2228 3.4 21:45:04 10° N 21:49:10 47° ENE 21:52:05 18° SE
Tiangong 2.6 21:47:18 10° WSW 21:49:46 21° SSW 21:50:37 19° S
SPOT 5 2.8 21:46:23 12° S 21:50:28 69° WSW 21:54:49 10° NNW
Cosmos 1980 Rocket 3.7 21:46:30 10° NNW 21:51:20 27° NE 21:56:09 10° ESE
Cosmos 1850 Rocket 4.2 21:46:11 10° NNW 21:51:24 64° ENE 21:55:21 17° SE
Nadezhda 1 Rocket 4.4 21:47:09 14° SSE 21:52:04 45° E 21:57:49 10° NNE
Cosmos 1606 Rocket 4.4 21:50:11 10° N 21:54:11 35° ENE 21:56:56 18° SE
Cosmos 1697 Rocket 3.3 21:48:49 10° NNW 21:54:15 47° NE 21:58:44 15° SE
Cosmos 1703 3.4 21:51:23 16° S 21:54:17 55° E 21:58:04 10° NNE
NOSS 2-1 (D) 4.3 21:52:07 10° NW 21:56:39 63° SW 22:01:32 17° SSE
Cosmos 2084 3.9 21:55:13 10° WSW 21:58:59 55° NW 22:02:49 10° NE
Cosmos 2154 Rocket 4.1 21:53:14 10° N 21:59:26 63° ENE 22:04:14 17° SSE
USA 276 1.8 21:59:33 10° WSW 22:02:33 78° SSE 22:05:34 10° ENE
Cosmos 1656 3.6 21:58:21 10° NNW 22:03:50 81° WSW 22:07:55 18° SSE
Cosmos 1331 Rocket 4.5 22:04:06 17° S 22:07:55 43° ESE 22:12:56 10° NE
Spot 2 Rocket 4.3 22:05:55 11° S 22:10:34 48° W 22:15:31 10° NNW
X-37B 0.6 22:09:21 10° WSW 22:12:03 44° S 22:12:57 31° SE
Meteor 1-21 Rocket 4.3 22:10:01 16° S 22:14:24 64° E 22:20:00 10° NNE
Cosmos 1408 4.1 22:15:25 17° ESE 22:16:13 19° E 22:18:41 10° NE
Lacrosse 5 2.5 22:12:20 10° WNW 22:17:09 42° SW 22:20:08 21° SSE
Cosmos 1452 Rocket 3.5 22:12:36 10° SSW 22:17:52 87° ESE 22:23:10 10° NNE
Cosmos 1726 Rocket 4.0 22:14:50 10° N 22:19:02 48° ENE 22:21:23 24° SE
SAR-Lupe-4 4.0 22:16:05 10° NNE 22:19:32 43° E 22:21:00 27° SSE
Terra 2.4 22:16:55 16° S 22:20:38 53° W 22:25:19 10° NNW
ATLAS 2AS CENTAUR R/B 3.4 22:14:01 10° NW 22:20:38 44° WSW 22:25:25 17° S
USA 234 3.5 22:14:43 10° ESE 22:21:14 71° NNE 22:27:46 10° NW
Cosmos 1833 Rocket 2.8 22:17:42 14° S 22:22:29 58° ESE 22:28:00 10° NE
Cosmos 1110 Rocket 4.0 22:25:42 15° SSW 22:30:02 72° ESE 22:35:20 10° NNE
Cosmos 2184 Rocket 4.4 22:25:31 10° NNW 22:31:34 58° W 22:36:37 15° SSW
Cosmos 2360 4.2 22:26:42 10° NNW 22:32:29 83° ENE 22:36:09 23° SSE
ALOS 2 4.3 22:32:45 15° ESE 22:35:19 24° ENE 22:38:50 10° N
SAR-Lupe-1 3.9 22:32:07 10° NNE 22:35:42 78° ESE 22:37:27 28° S
Lacrosse 5 rocket 3.4 22:33:57 10° W 22:36:05 14° SW 22:37:26 12° SSW
Cosmos 2082 Rocket 2.8 22:42:49 25° SSE 22:45:27 39° ESE 22:50:42 10° NE
Meteor 2-1 Rocket 4.3 22:41:31 10° NNW 22:47:01 71° W 22:50:28 23° S
RESURS DK-1 2.8 22:43:10 10° NW 22:47:10 49° WSW 22:48:58 29° S
Cosmos 2341 Rocket 4.1 22:43:56 10° N 22:50:18 72° E 22:54:07 25° SSE
Cosmos 2058 Rocket 3.2 22:48:42 10° N 22:53:05 65° ENE 22:55:04 31° SSE
Spot 4 4.1 22:52:43 27° SE 22:55:10 57° ENE 22:59:53 10° N
Cosmos 1892 Rocket 3.5 22:53:33 29° S 22:55:45 80° E 23:00:09 10° NNE
ARIANE 5 R/B 4.1 22:55:42 16° SSW 22:58:33 29° W 23:02:27 10° NW
Cosmos 1825 3.2 22:58:50 27° ESE 22:59:35 29° E 23:02:52 10° NNE
Cosmos 192 4.3 23:00:39 27° S 23:03:15 70° ESE 23:08:09 10° NNE
Cosmos 968 Rocket 3.5 22:59:29 10° NNW 23:04:43 82° ENE 23:07:22 30° SSE
ERS-2 4.1 23:03:29 10° NE 23:05:41 15° E 23:05:53 15° E
SL-8 R/B 3.7 23:04:24 10° WNW 23:09:08 59° SSW 23:11:22 30° SE
GP-B 3.1 23:04:46 10° N 23:09:13 77° W 23:11:19 31° SSW
Cosmos 1626 Rocket 4.2 23:10:22 31° SE 23:11:42 40° E 23:15:46 10° NNE
BREEZE-M DEB (TANK) 3.6 23:13:00 10° W 23:15:57 77° N 23:26:19 10° E
Cosmos 1869 3.6 23:12:09 10° N 23:15:57 52° ENE 23:17:09 37° SE
Meteor 1-27 4.3 23:12:16 10° N 23:17:51 71° ENE 23:20:39 30° SSE
ASTEX 1 3.9 23:14:17 10° N 23:19:11 56° W 23:22:15 22° SSW
Cosmos 864 Rocket 4.5 23:14:05 10° N 23:20:16 81° E 23:23:39 29° SSE
Cosmos 2181 Rocket 3.9 23:20:12 28° S 23:23:38 80° E 23:29:51 10° N
COSMOS 2406 3.3 23:19:53 19° SSW 23:24:12 82° WNW 23:30:00 10° NNE
ADEOS Rocket 3.6 23:20:28 25° SSE 23:24:59 73° ENE 23:32:38 10° NNW
Cosmos 1633 3.7 23:25:15 27° ESE 23:25:35 28° E 23:28:36 10° NNE
Cosmos 2369 3.8 23:21:40 10° NNW 23:27:21 66° WSW 23:30:04 31° S
SL-16 R/B 3.3 23:23:24 10° NNW 23:28:43 38° NE 23:33:08 14° ESE
Okean 1-7 Rocket 3.6 23:27:28 38° S 23:29:04 72° E 23:33:33 10° NNE
USA 267 3.5 23:22:58 10° NE 23:29:29 72° NNW 23:36:00 10° WSW
Cosmos 1892 2.9 23:30:47 37° SW 23:32:04 61° WNW 23:35:49 10° N
Cosmos 1980 Rocket 2.3 23:30:09 10° NNW 23:35:48 63° WSW 23:38:22 32° S
SJ 16-02 3.1 23:32:38 10° N 23:36:25 26° ENE 23:39:13 15° ESE
Cosmos 1486 Rocket 4.1 23:31:49 10° NNW 23:37:02 72° ENE 23:39:34 31° SE
Cosmos 1697 Rocket 3.8 23:33:07 10° NW 23:38:02 32° WSW 23:40:27 23° SSW
USA 276 2.7 23:35:24 10° W 23:38:21 54° N 23:41:19 10° ENE
Cosmos 2084 Rocket 3.4 23:34:32 10° NW 23:38:22 56° SW 23:39:10 46° S
Cosmos 2344 4.5 23:31:55 10° NW 23:40:52 62° WSW 23:48:55 24° SSE
Cosmos 1821 Rocket 4.2 23:36:21 10° N 23:42:36 63° ENE 23:45:54 28° SSE
Cosmos 1992 Rocket 4.0 23:48:17 35° S 23:50:31 73° ESE 23:55:45 10° NNE
Cosmos 1408 4.0 23:49:23 22° WSW 23:50:42 28° WNW 23:53:45 10° NNW
In-Cosmos 22 Rocket 4.3 23:48:12 27° SSW 23:51:16 69° WNW 23:56:46 10° N
Cosmos 807 4.1 23:51:10 10° NNW 23:54:31 74° W 23:54:43 70° SW
FALCON 9 DEB 4.0 23:53:20 10° WNW 23:56:32 47° NNE 23:59:14 13° E
